WMT506 LATI-EBCI

Flight info

Callsign WMT506
Flight time 2h 13m
Altitude 36000
Route INLOT DCT RETRA DCT GACMO DCT TEBLI DCT PODET DCT SIMBA DCT MAMOR DCT INBED DCT TEKTU DCT TESGA/N0406F280 DCT UMUPU/N0394F260 T880 ADMUM/N0383F240 T880 BATTY
Aircraft A321/M-SDE1E2E3FGIJ1J4RWXY/LB1

Departure

Time 2026-05-07 11:40
Airport Tirana International Airport Mother Teresa (LATI)

Arrival

Time 2026-05-07 13:53
Airport Brussels South Charleroi Airport (EBCI)
Time Latitude Longitude Altitude Speed Heading
2026-05-07 10:58 41.42417 19.71455 118 ft 0 kts 264°
2026-05-07 11:04 41.42417 19.71456 120 ft 0 kts 264°
2026-05-07 11:05 41.42417 19.71455 120 ft 0 kts 264°
2026-05-07 11:06 41.42417 19.71456 120 ft 0 kts 264°
2026-05-07 11:32 41.42417 19.71462 115 ft 4 kts 266°
2026-05-07 11:32 41.42414 19.71496 117 ft 4 kts 300°
2026-05-07 11:32 41.42397 19.71519 115 ft 4 kts 346°
2026-05-07 11:33 41.42386 19.71521 115 ft 1 kts 354°
2026-05-07 11:37 41.42405 19.71519 115 ft 7 kts 354°
2026-05-07 11:37 41.42460 19.71511 117 ft 9 kts 354°
2026-05-07 11:37 41.42526 19.71502 116 ft 10 kts 354°
2026-05-07 11:37 41.42602 19.71492 114 ft 12 kts 354°
2026-05-07 11:38 41.42659 19.71520 116 ft 9 kts 63°
2026-05-07 11:38 41.42668 19.71608 117 ft 9 kts 84°
2026-05-07 11:38 41.42673 19.71675 118 ft 8 kts 84°
2026-05-07 11:38 41.42679 19.71752 118 ft 9 kts 84°
2026-05-07 11:39 41.42686 19.71839 118 ft 10 kts 84°
2026-05-07 11:39 41.42667 19.71896 118 ft 7 kts 165°
2026-05-07 11:39 41.42610 19.71903 117 ft 12 kts 174°
2026-05-07 11:39 41.42277 19.71949 121 ft 84 kts 174°
2026-05-07 11:40 41.41480 19.72056 124 ft 143 kts 174°
2026-05-07 11:40 41.40422 19.72197 611 ft 150 kts 173°
2026-05-07 11:40 41.39383 19.72324 1309 ft 150 kts 173°
2026-05-07 11:40 41.38315 19.72459 1718 ft 163 kts 173°
2026-05-07 11:41 41.37122 19.72613 2046 ft 181 kts 173°
2026-05-07 11:41 41.35794 19.72784 2301 ft 203 kts 174°
2026-05-07 11:41 41.34299 19.72979 2451 ft 229 kts 173°
2026-05-07 11:41 41.32655 19.73195 2974 ft 242 kts 174°
2026-05-07 11:42 41.30959 19.73416 3706 ft 246 kts 174°
2026-05-07 11:42 41.29238 19.73645 4460 ft 251 kts 175°
2026-05-07 11:42 41.27506 19.73884 5122 ft 258 kts 176°
2026-05-07 11:42 41.25677 19.73896 5857 ft 261 kts 195°
2026-05-07 11:43 41.24130 19.72679 6485 ft 263 kts 231°
2026-05-07 11:43 41.23401 19.70506 7140 ft 267 kts 264°
2026-05-07 11:43 41.23745 19.68097 7855 ft 274 kts 297°
2026-05-07 11:43 41.25090 19.66285 8549 ft 285 kts 329°
2026-05-07 11:44 41.27016 19.65535 9228 ft 295 kts 349°
2026-05-07 11:44 41.29082 19.65343 9964 ft 300 kts 353°
2026-05-07 11:44 41.31221 19.65207 10367 ft 318 kts 353°
2026-05-07 11:44 41.33511 19.65050 10563 ft 340 kts 353°
2026-05-07 11:45 41.35902 19.64700 11020 ft 349 kts 347°
2026-05-07 11:45 41.38295 19.64099 11679 ft 351 kts 344°
2026-05-07 11:45 41.40683 19.63355 12382 ft 354 kts 342°
2026-05-07 11:45 41.43079 19.62549 13087 ft 357 kts 342°
2026-05-07 11:46 41.45499 19.61729 13784 ft 360 kts 342°
2026-05-07 11:46 41.47939 19.60920 14414 ft 363 kts 342°
2026-05-07 11:46 41.50413 19.60127 15040 ft 367 kts 343°
2026-05-07 11:46 41.52905 19.59345 15671 ft 370 kts 343°
2026-05-07 11:47 41.55429 19.58563 16297 ft 374 kts 343°
2026-05-07 11:47 41.57975 19.57776 16893 ft 378 kts 343°
2026-05-07 11:47 41.60509 19.56990 17509 ft 381 kts 343°
2026-05-07 11:47 41.63101 19.56184 18136 ft 384 kts 343°
2026-05-07 11:48 41.65713 19.55376 18702 ft 387 kts 343°
2026-05-07 11:48 41.68351 19.54558 19231 ft 391 kts 343°
2026-05-07 11:48 41.71012 19.53733 19753 ft 394 kts 343°
2026-05-07 11:48 41.73693 19.52901 20278 ft 398 kts 343°
2026-05-07 11:49 41.76404 19.52058 20815 ft 401 kts 343°
2026-05-07 11:49 41.79133 19.51207 21318 ft 405 kts 343°
2026-05-07 11:49 41.81889 19.50348 21845 ft 409 kts 342°
2026-05-07 11:49 41.84674 19.49475 22358 ft 412 kts 342°
2026-05-07 11:50 41.87476 19.48593 22866 ft 416 kts 342°
2026-05-07 11:50 41.90305 19.47702 23382 ft 419 kts 343°
2026-05-07 11:50 41.93159 19.46809 23836 ft 423 kts 342°
2026-05-07 11:50 41.96037 19.45912 24237 ft 427 kts 342°
2026-05-07 11:51 41.98905 19.44873 24632 ft 426 kts 336°
2026-05-07 11:51 42.01710 19.43550 25032 ft 428 kts 336°
2026-05-07 11:51 42.04535 19.42211 25427 ft 431 kts 336°
2026-05-07 11:51 42.07370 19.40860 25811 ft 434 kts 336°
2026-05-07 11:52 42.10233 19.39495 26190 ft 437 kts 336°
2026-05-07 11:52 42.13068 19.38143 26562 ft 440 kts 336°
2026-05-07 11:52 42.15962 19.36763 26935 ft 443 kts 336°
2026-05-07 11:52 42.18878 19.35374 27288 ft 446 kts 336°
2026-05-07 11:53 42.21807 19.33939 27617 ft 448 kts 333°
2026-05-07 11:53 42.24578 19.32061 27967 ft 445 kts 324°
2026-05-07 11:53 42.27213 19.29857 28322 ft 447 kts 323°
2026-05-07 11:53 42.29867 19.27625 28672 ft 450 kts 323°
2026-05-07 11:54 42.32535 19.25380 29020 ft 452 kts 323°
2026-05-07 11:54 42.35216 19.23126 29357 ft 455 kts 323°
2026-05-07 11:54 42.37914 19.20860 29690 ft 458 kts 323°
2026-05-07 11:54 42.40628 19.18585 30022 ft 461 kts 323°
2026-05-07 11:55 42.43362 19.16290 30305 ft 464 kts 323°
2026-05-07 11:55 42.46110 19.13979 30566 ft 466 kts 323°
2026-05-07 11:55 42.48873 19.11655 30879 ft 468 kts 323°
2026-05-07 11:55 42.51629 19.09336 31392 ft 463 kts 324°
2026-05-07 11:56 42.54359 19.07034 31923 ft 460 kts 323°
2026-05-07 11:56 42.57065 19.04748 32397 ft 458 kts 323°
2026-05-07 11:56 42.59768 19.02460 32864 ft 456 kts 324°
2026-05-07 11:56 42.62447 19.00190 33412 ft 453 kts 324°
2026-05-07 11:57 42.65082 18.97956 33831 ft 451 kts 324°
2026-05-07 11:57 42.67741 18.95701 34233 ft 450 kts 324°
2026-05-07 11:57 42.70397 18.93444 34556 ft 449 kts 324°
2026-05-07 11:57 42.73041 18.91196 34880 ft 448 kts 324°
2026-05-07 11:58 42.75684 18.88942 35194 ft 448 kts 324°
2026-05-07 11:58 42.78321 18.86691 35521 ft 447 kts 323°
2026-05-07 11:58 42.80954 18.84444 35826 ft 446 kts 323°
2026-05-07 11:58 42.83586 18.82199 36068 ft 447 kts 323°
2026-05-07 11:59 42.86218 18.79951 36134 ft 446 kts 323°
2026-05-07 11:59 42.91463 18.75468 36117 ft 443 kts 323°
2026-05-07 12:00 42.96667 18.71002 36131 ft 441 kts 323°
2026-05-07 12:00 43.01853 18.66530 36121 ft 441 kts 323°
2026-05-07 12:01 43.07012 18.62081 36130 ft 441 kts 323°
2026-05-07 12:01 43.12211 18.57594 36120 ft 442 kts 323°
2026-05-07 12:02 43.17421 18.53074 36109 ft 444 kts 323°
2026-05-07 12:02 43.22625 18.48502 36111 ft 444 kts 323°
2026-05-07 12:03 43.27835 18.43909 36114 ft 445 kts 323°
2026-05-07 12:03 43.33036 18.39310 36148 ft 444 kts 322°
2026-05-07 12:04 43.38227 18.34720 36141 ft 443 kts 322°
2026-05-07 12:04 43.43406 18.30140 36132 ft 442 kts 322°
2026-05-07 12:05 43.48565 18.25557 36140 ft 441 kts 322°
2026-05-07 12:05 43.53676 18.21004 36130 ft 440 kts 322°
2026-05-07 12:06 43.58831 18.16420 36128 ft 441 kts 322°
2026-05-07 12:06 43.63988 18.11815 36097 ft 441 kts 322°
2026-05-07 12:07 43.69143 18.07195 36100 ft 442 kts 322°
2026-05-07 12:07 43.74296 18.02572 36085 ft 442 kts 322°
2026-05-07 12:08 43.79453 17.97939 36095 ft 442 kts 322°
2026-05-07 12:08 43.83740 17.94078 36088 ft 443 kts 322°
2026-05-07 12:09 43.88900 17.89413 36099 ft 442 kts 322°
2026-05-07 12:09 43.94058 17.84750 36097 ft 442 kts 322°
2026-05-07 12:10 43.99205 17.80093 36096 ft 442 kts 322°
2026-05-07 12:10 44.04359 17.75422 36097 ft 442 kts 322°
2026-05-07 12:11 44.09509 17.70736 36096 ft 442 kts 322°
2026-05-07 12:11 44.14658 17.66039 36111 ft 442 kts 321°
2026-05-07 12:12 44.19808 17.61336 36099 ft 443 kts 321°
2026-05-07 12:12 44.24960 17.56620 36096 ft 443 kts 321°
2026-05-07 12:13 44.30080 17.51922 36080 ft 443 kts 321°
2026-05-07 12:13 44.35232 17.47184 36075 ft 444 kts 321°
2026-05-07 12:14 44.40394 17.42428 36082 ft 444 kts 321°
2026-05-07 12:14 44.45553 17.37657 36076 ft 445 kts 321°
2026-05-07 12:15 44.50717 17.32877 36068 ft 445 kts 321°
2026-05-07 12:15 44.55883 17.28091 36066 ft 445 kts 321°
2026-05-07 12:16 44.61049 17.23287 36062 ft 445 kts 321°
2026-05-07 12:16 44.66212 17.18466 36073 ft 445 kts 320°
2026-05-07 12:17 44.71341 17.13673 36076 ft 446 kts 320°
2026-05-07 12:17 44.76510 17.08842 36069 ft 446 kts 320°
2026-05-07 12:18 44.81677 17.03997 36066 ft 446 kts 320°
2026-05-07 12:18 44.86849 16.99145 36064 ft 447 kts 320°
2026-05-07 12:19 44.92024 16.94281 36087 ft 447 kts 320°
2026-05-07 12:19 44.97204 16.89386 36076 ft 448 kts 320°
2026-05-07 12:20 45.02381 16.84478 36066 ft 448 kts 320°
2026-05-07 12:20 45.07564 16.79565 36062 ft 448 kts 320°
2026-05-07 12:21 45.12745 16.74651 36062 ft 448 kts 320°
2026-05-07 12:21 45.17920 16.69717 36065 ft 448 kts 319°
2026-05-07 12:22 45.23006 16.64734 36053 ft 446 kts 317°
2026-05-07 12:22 45.27968 16.59452 36056 ft 445 kts 316°
2026-05-07 12:23 45.32884 16.54102 36051 ft 446 kts 316°
2026-05-07 12:23 45.37834 16.48793 36063 ft 446 kts 316°
2026-05-07 12:24 45.42799 16.43506 36038 ft 445 kts 316°
2026-05-07 12:24 45.47751 16.38222 36036 ft 445 kts 316°
2026-05-07 12:25 45.52698 16.32920 36032 ft 445 kts 316°
2026-05-07 12:25 45.57639 16.27607 36034 ft 445 kts 316°
2026-05-07 12:26 45.62589 16.22266 36052 ft 445 kts 316°
2026-05-07 12:26 45.67528 16.16930 36044 ft 445 kts 316°
2026-05-07 12:27 45.72471 16.11584 36057 ft 446 kts 315°
2026-05-07 12:27 45.77411 16.06230 36050 ft 445 kts 315°
2026-05-07 12:28 45.82349 16.00867 36050 ft 445 kts 315°
2026-05-07 12:28 45.87280 15.95488 36049 ft 445 kts 315°
2026-05-07 12:29 45.92186 15.90131 36028 ft 446 kts 315°
2026-05-07 12:29 45.97123 15.84719 36016 ft 447 kts 315°
2026-05-07 12:30 46.02063 15.79300 36013 ft 447 kts 315°
2026-05-07 12:30 46.07019 15.73856 36008 ft 447 kts 315°
2026-05-07 12:31 46.11970 15.68407 36018 ft 448 kts 315°
2026-05-07 12:31 46.16920 15.62928 36006 ft 448 kts 315°
2026-05-07 12:32 46.21758 15.57280 35999 ft 447 kts 313°
2026-05-07 12:32 46.26499 15.51477 35985 ft 446 kts 312°
2026-05-07 12:33 46.33616 15.42765 35990 ft 447 kts 313°
2026-05-07 12:33 46.38351 15.37008 35992 ft 448 kts 313°
2026-05-07 12:34 46.43130 15.31209 35989 ft 448 kts 313°
2026-05-07 12:34 46.47913 15.25393 35976 ft 449 kts 313°
2026-05-07 12:35 46.52686 15.19560 35973 ft 448 kts 313°
2026-05-07 12:35 46.57451 15.13705 35966 ft 449 kts 313°
2026-05-07 12:36 46.62215 15.07840 35960 ft 447 kts 313°
2026-05-07 12:36 46.66967 15.01991 35944 ft 447 kts 313°
2026-05-07 12:37 46.71714 14.96131 35949 ft 448 kts 313°
2026-05-07 12:37 46.76473 14.90251 35949 ft 448 kts 313°
2026-05-07 12:38 46.81223 14.84352 35948 ft 448 kts 313°
2026-05-07 12:38 46.85942 14.78479 35959 ft 449 kts 313°
2026-05-07 12:39 46.90692 14.72564 35950 ft 448 kts 313°
2026-05-07 12:39 46.95437 14.66638 35947 ft 449 kts 313°
2026-05-07 12:40 47.00179 14.60684 35942 ft 449 kts 313°
2026-05-07 12:40 47.04927 14.54714 35951 ft 450 kts 313°
2026-05-07 12:41 47.09676 14.48736 35989 ft 450 kts 313°
2026-05-07 12:41 47.14434 14.42743 35964 ft 451 kts 313°
2026-05-07 12:42 47.19191 14.36736 35955 ft 451 kts 313°
2026-05-07 12:42 47.23943 14.30720 35963 ft 451 kts 313°
2026-05-07 12:43 47.28686 14.24687 35965 ft 450 kts 313°
2026-05-07 12:43 47.33391 14.18686 35997 ft 450 kts 313°
2026-05-07 12:44 47.38129 14.12637 36000 ft 451 kts 313°
2026-05-07 12:44 47.42862 14.06574 35994 ft 451 kts 313°
2026-05-07 12:45 47.47601 14.00491 35995 ft 451 kts 313°
2026-05-07 12:45 47.52333 13.94398 35997 ft 452 kts 313°
2026-05-07 12:46 47.57068 13.88286 36027 ft 452 kts 313°
2026-05-07 12:46 47.61813 13.82157 36026 ft 452 kts 313°
2026-05-07 12:47 47.66547 13.76017 36022 ft 452 kts 313°
2026-05-07 12:47 47.71274 13.69864 36028 ft 452 kts 313°
2026-05-07 12:48 47.76006 13.63709 36023 ft 452 kts 313°
2026-05-07 12:48 47.80736 13.57537 36049 ft 452 kts 314°
2026-05-07 12:49 47.85424 13.51402 36050 ft 451 kts 314°
2026-05-07 12:49 47.90137 13.45210 36037 ft 451 kts 314°
2026-05-07 12:50 47.94839 13.39013 36031 ft 451 kts 314°
2026-05-07 12:50 47.99538 13.32811 36031 ft 451 kts 314°
2026-05-07 12:51 48.04236 13.26599 36052 ft 451 kts 314°
2026-05-07 12:51 48.08922 13.20386 36045 ft 450 kts 314°
2026-05-07 12:52 48.13602 13.14169 36041 ft 449 kts 314°
2026-05-07 12:52 48.18269 13.07939 36038 ft 449 kts 314°
2026-05-07 12:53 48.22927 13.01703 36038 ft 449 kts 314°
2026-05-07 12:53 48.27741 12.95687 36047 ft 451 kts 317°
2026-05-07 12:54 48.32710 12.89906 36048 ft 451 kts 318°
2026-05-07 12:54 48.37656 12.84122 36046 ft 450 kts 318°
2026-05-07 12:55 48.42547 12.78280 36040 ft 450 kts 317°
2026-05-07 12:55 48.47425 12.72380 36034 ft 449 kts 317°
2026-05-07 12:56 48.52265 12.66513 36032 ft 449 kts 317°
2026-05-07 12:56 48.57144 12.60605 36029 ft 449 kts 317°
2026-05-07 12:57 48.62016 12.54702 36038 ft 449 kts 317°
2026-05-07 12:57 48.66888 12.48792 36032 ft 449 kts 317°
2026-05-07 12:58 48.70937 12.43863 36034 ft 449 kts 317°
2026-05-07 12:58 48.75806 12.37923 36034 ft 450 kts 317°
2026-05-07 12:59 48.80674 12.31965 36034 ft 450 kts 317°
2026-05-07 12:59 48.85540 12.25990 36047 ft 450 kts 317°
2026-05-07 13:00 48.89787 12.19177 36044 ft 442 kts 300°
2026-05-07 13:00 48.92981 12.11216 36040 ft 441 kts 298°
2026-05-07 13:01 48.96164 12.03237 36042 ft 441 kts 298°
2026-05-07 13:01 48.99358 11.95249 36047 ft 442 kts 298°
2026-05-07 13:02 49.02542 11.87240 36058 ft 442 kts 298°
2026-05-07 13:02 49.05720 11.79201 36056 ft 442 kts 298°
2026-05-07 13:03 49.08891 11.71159 36054 ft 442 kts 298°
2026-05-07 13:03 49.12032 11.63158 36053 ft 442 kts 298°
2026-05-07 13:04 49.15190 11.55093 36065 ft 442 kts 298°
2026-05-07 13:04 49.18335 11.47035 36062 ft 442 kts 298°
2026-05-07 13:05 49.21485 11.38966 36053 ft 442 kts 298°
2026-05-07 13:05 49.24624 11.30880 36049 ft 442 kts 298°
2026-05-07 13:06 49.27755 11.22782 36045 ft 442 kts 298°
2026-05-07 13:06 49.30883 11.14681 36058 ft 442 kts 298°
2026-05-07 13:07 49.33997 11.06573 36054 ft 441 kts 298°
2026-05-07 13:07 49.37104 10.98455 36057 ft 441 kts 298°
2026-05-07 13:08 49.40616 10.90749 36050 ft 442 kts 308°
2026-05-07 13:08 49.44583 10.83514 36054 ft 443 kts 308°
2026-05-07 13:09 49.48541 10.76246 36069 ft 443 kts 308°
2026-05-07 13:09 49.52468 10.69013 36063 ft 443 kts 308°
2026-05-07 13:10 49.56419 10.61721 36057 ft 443 kts 308°
2026-05-07 13:10 49.60358 10.54424 36060 ft 443 kts 308°
2026-05-07 13:11 49.64299 10.47112 36058 ft 443 kts 308°
2026-05-07 13:11 49.68229 10.39791 36065 ft 443 kts 308°
2026-05-07 13:12 49.72155 10.32463 36056 ft 442 kts 308°
2026-05-07 13:12 49.76071 10.25122 36059 ft 442 kts 308°
2026-05-07 13:13 49.79986 10.17759 36050 ft 443 kts 308°
2026-05-07 13:13 49.83898 10.10397 36047 ft 443 kts 308°
2026-05-07 13:14 49.87815 10.03027 36046 ft 443 kts 308°
2026-05-07 13:14 49.91717 9.95642 36046 ft 443 kts 308°
2026-05-07 13:15 49.95612 9.88248 36045 ft 442 kts 308°
2026-05-07 13:15 49.99473 9.80889 36045 ft 442 kts 308°
2026-05-07 13:16 50.03340 9.73480 36045 ft 441 kts 308°
2026-05-07 13:16 50.07217 9.66053 36042 ft 442 kts 308°
2026-05-07 13:17 50.11089 9.58624 36044 ft 442 kts 308°
2026-05-07 13:17 50.14961 9.51180 36045 ft 441 kts 308°
2026-05-07 13:18 50.18818 9.43747 36043 ft 441 kts 308°
2026-05-07 13:18 50.22671 9.36281 36042 ft 441 kts 307°
2026-05-07 13:19 50.26523 9.28779 36042 ft 442 kts 307°
2026-05-07 13:19 50.30365 9.21283 36054 ft 442 kts 308°
2026-05-07 13:20 50.33932 9.13572 36050 ft 440 kts 297°
2026-05-07 13:20 50.36083 9.04661 36044 ft 438 kts 287°
2026-05-07 13:21 50.37884 8.95545 36045 ft 438 kts 287°
2026-05-07 13:21 50.39683 8.86423 36045 ft 438 kts 287°
2026-05-07 13:22 50.41483 8.77299 36042 ft 438 kts 287°
2026-05-07 13:22 50.43271 8.68166 36057 ft 438 kts 286°
2026-05-07 13:23 50.44791 8.58972 36058 ft 438 kts 278°
2026-05-07 13:23 50.45731 8.49531 36063 ft 438 kts 278°
2026-05-07 13:24 50.46675 8.40081 36062 ft 438 kts 278°
2026-05-07 13:24 50.47609 8.30613 36063 ft 438 kts 278°
2026-05-07 13:25 50.48533 8.21162 36061 ft 438 kts 278°
2026-05-07 13:25 50.49449 8.11714 36066 ft 438 kts 278°
2026-05-07 13:26 50.50365 8.02252 36064 ft 438 kts 278°
2026-05-07 13:26 50.51263 7.92799 36066 ft 437 kts 278°
2026-05-07 13:27 50.52143 7.83419 36067 ft 437 kts 278°
2026-05-07 13:27 50.53031 7.73988 35719 ft 435 kts 278°
2026-05-07 13:28 50.53470 7.69292 35470 ft 433 kts 278°
2026-05-07 13:28 50.53906 7.64611 35226 ft 433 kts 278°
2026-05-07 13:28 50.54339 7.59939 34835 ft 431 kts 278°
2026-05-07 13:28 50.54767 7.55287 34366 ft 429 kts 278°
2026-05-07 13:29 50.55188 7.50659 33866 ft 427 kts 278°
2026-05-07 13:29 50.55606 7.46043 33373 ft 423 kts 278°
2026-05-07 13:29 50.55889 7.41462 32893 ft 419 kts 271°
2026-05-07 13:29 50.55921 7.36898 32406 ft 416 kts 271°
2026-05-07 13:30 50.55952 7.32363 31923 ft 412 kts 271°
2026-05-07 13:30 50.55984 7.27877 31444 ft 409 kts 271°
2026-05-07 13:30 50.56014 7.23415 30975 ft 406 kts 271°
2026-05-07 13:30 50.56042 7.18989 30498 ft 403 kts 271°
2026-05-07 13:31 50.56048 7.14657 30023 ft 400 kts 270°
2026-05-07 13:31 50.55990 7.10302 29528 ft 396 kts 268°
2026-05-07 13:31 50.55887 7.06001 29081 ft 391 kts 268°
2026-05-07 13:31 50.55766 7.01756 28647 ft 386 kts 268°
2026-05-07 13:32 50.55646 6.97561 28209 ft 382 kts 267°
2026-05-07 13:32 50.55536 6.93407 27799 ft 378 kts 268°
2026-05-07 13:32 50.55436 6.89294 27389 ft 375 kts 268°
2026-05-07 13:32 50.55340 6.85210 26979 ft 372 kts 268°
2026-05-07 13:33 50.55244 6.81162 26580 ft 369 kts 267°
2026-05-07 13:33 50.55147 6.77146 26192 ft 366 kts 267°
2026-05-07 13:33 50.55053 6.73241 25811 ft 364 kts 267°
2026-05-07 13:33 50.55027 6.69316 25412 ft 361 kts 273°
2026-05-07 13:34 50.55388 6.65426 25026 ft 359 kts 280°
2026-05-07 13:34 50.56327 6.57777 24230 ft 354 kts 279°
2026-05-07 13:34 50.56787 6.53986 23824 ft 352 kts 279°
2026-05-07 13:35 50.57243 6.50214 23388 ft 350 kts 279°
2026-05-07 13:35 50.57695 6.46470 22960 ft 347 kts 279°
2026-05-07 13:35 50.58141 6.42768 22548 ft 343 kts 279°
2026-05-07 13:35 50.58580 6.39101 22135 ft 340 kts 279°
2026-05-07 13:36 50.59015 6.35459 21734 ft 337 kts 279°
2026-05-07 13:36 50.59444 6.31849 21323 ft 334 kts 279°
2026-05-07 13:36 50.59866 6.28279 20920 ft 331 kts 279°
2026-05-07 13:36 50.60286 6.24731 20504 ft 328 kts 279°
2026-05-07 13:37 50.60702 6.21213 20118 ft 326 kts 279°
2026-05-07 13:37 50.61109 6.17763 19712 ft 323 kts 279°
2026-05-07 13:37 50.61515 6.14288 19333 ft 321 kts 279°
2026-05-07 13:37 50.61918 6.10833 18934 ft 320 kts 279°
2026-05-07 13:38 50.62318 6.07394 18543 ft 319 kts 279°
2026-05-07 13:38 50.62714 6.03970 18124 ft 318 kts 279°
2026-05-07 13:38 50.63109 6.00558 17716 ft 315 kts 279°
2026-05-07 13:38 50.63500 5.97182 17315 ft 313 kts 279°
2026-05-07 13:39 50.63889 5.93809 16941 ft 310 kts 279°
2026-05-07 13:39 50.64273 5.90483 16557 ft 308 kts 279°
2026-05-07 13:39 50.64653 5.87179 16176 ft 305 kts 279°
2026-05-07 13:39 50.64941 5.83884 15800 ft 303 kts 272°
2026-05-07 13:40 50.65008 5.80583 15424 ft 301 kts 271°
2026-05-07 13:40 50.65078 5.77301 15063 ft 299 kts 271°
2026-05-07 13:40 50.65151 5.74035 14697 ft 297 kts 272°
2026-05-07 13:40 50.65224 5.70784 14334 ft 296 kts 272°
2026-05-07 13:41 50.65297 5.67552 13967 ft 295 kts 272°
2026-05-07 13:41 50.65365 5.64371 13581 ft 294 kts 271°
2026-05-07 13:41 50.65431 5.61168 13240 ft 291 kts 271°
2026-05-07 13:41 50.65493 5.57980 12883 ft 289 kts 271°
2026-05-07 13:42 50.65555 5.54832 12529 ft 287 kts 271°
2026-05-07 13:42 50.65620 5.51698 12177 ft 285 kts 271°
2026-05-07 13:42 50.65683 5.48588 11828 ft 283 kts 271°
2026-05-07 13:42 50.65742 5.45498 11484 ft 281 kts 271°
2026-05-07 13:43 50.65799 5.42423 11137 ft 280 kts 271°
2026-05-07 13:43 50.65853 5.39377 10798 ft 279 kts 271°
2026-05-07 13:43 50.65909 5.36333 10451 ft 278 kts 271°
2026-05-07 13:43 50.65967 5.33296 10173 ft 275 kts 271°
2026-05-07 13:44 50.66023 5.30241 10091 ft 283 kts 270°
2026-05-07 13:44 50.66078 5.27119 9731 ft 287 kts 271°
2026-05-07 13:44 50.66131 5.23987 9332 ft 285 kts 271°
2026-05-07 13:44 50.66183 5.20871 8956 ft 283 kts 271°
2026-05-07 13:45 50.66232 5.17771 8584 ft 282 kts 269°
2026-05-07 13:45 50.65989 5.14729 8213 ft 279 kts 255°
2026-05-07 13:45 50.65566 5.12824 7963 ft 278 kts 245°
2026-05-07 13:45 50.64764 5.10069 7598 ft 276 kts 245°
2026-05-07 13:46 50.63966 5.07312 7232 ft 276 kts 245°
2026-05-07 13:46 50.63180 5.04576 6897 ft 273 kts 245°
2026-05-07 13:46 50.62396 5.01856 6587 ft 271 kts 245°
2026-05-07 13:46 50.61617 4.99169 6266 ft 269 kts 245°
2026-05-07 13:47 50.60840 4.96502 5959 ft 268 kts 245°
2026-05-07 13:47 50.60030 4.93861 5655 ft 267 kts 243°
2026-05-07 13:47 50.59198 4.91251 5353 ft 267 kts 245°
2026-05-07 13:47 50.58438 4.88631 5053 ft 266 kts 246°
2026-05-07 13:48 50.57684 4.85964 4693 ft 267 kts 246°
2026-05-07 13:48 50.56933 4.83325 4419 ft 262 kts 246°
2026-05-07 13:48 50.56198 4.80753 4268 ft 253 kts 246°
2026-05-07 13:48 50.55489 4.78276 4136 ft 244 kts 246°
2026-05-07 13:49 50.54805 4.75886 4001 ft 235 kts 246°
2026-05-07 13:49 50.54143 4.73573 3878 ft 231 kts 246°
2026-05-07 13:49 50.53484 4.71276 3747 ft 230 kts 246°
2026-05-07 13:49 50.52834 4.69013 3646 ft 222 kts 245°
2026-05-07 13:50 50.52203 4.66818 3397 ft 216 kts 245°
2026-05-07 13:50 50.51599 4.64716 3104 ft 205 kts 245°
2026-05-07 13:50 50.51027 4.62730 2828 ft 195 kts 245°
2026-05-07 13:50 50.50478 4.60824 2557 ft 188 kts 245°
2026-05-07 13:51 50.49948 4.58987 2306 ft 180 kts 245°
2026-05-07 13:51 50.49453 4.57270 2096 ft 166 kts 245°
2026-05-07 13:51 50.48989 4.55662 1860 ft 159 kts 244°
2026-05-07 13:51 50.48537 4.54100 1651 ft 156 kts 245°
2026-05-07 13:52 50.48090 4.52555 1405 ft 155 kts 245°
2026-05-07 13:52 50.47642 4.51007 1197 ft 155 kts 245°
2026-05-07 13:52 50.47200 4.49473 971 ft 154 kts 246°
2026-05-07 13:52 50.46761 4.47963 752 ft 154 kts 246°
2026-05-07 13:53 50.46318 4.46432 593 ft 145 kts 245°
2026-05-07 13:53 50.45967 4.45230 590 ft 94 kts 245°
2026-05-07 13:53 50.45887 4.44858 596 ft 10 kts 294°
2026-05-07 13:53 50.45913 4.44804 597 ft 6 kts 321°
2026-05-07 13:54 50.45959 4.44767 596 ft 9 kts 338°
2026-05-07 13:54 50.46018 4.44798 597 ft 10 kts 45°
2026-05-07 13:54 50.46052 4.44897 597 ft 11 kts 65°
2026-05-07 13:54 50.46089 4.45022 596 ft 14 kts 65°
2026-05-07 13:55 50.46131 4.45168 598 ft 14 kts 65°
2026-05-07 13:55 50.46173 4.45314 599 ft 16 kts 65°
2026-05-07 13:55 50.46221 4.45478 599 ft 16 kts 65°
2026-05-07 13:55 50.46266 4.45632 599 ft 14 kts 65°
2026-05-07 13:56 50.46305 4.45767 597 ft 15 kts 65°
2026-05-07 13:56 50.46349 4.45919 597 ft 16 kts 65°
2026-05-07 13:56 50.46402 4.46101 592 ft 21 kts 65°
2026-05-07 13:56 50.46462 4.46309 590 ft 19 kts 65°
2026-05-07 13:57 50.46516 4.46492 589 ft 15 kts 65°
2026-05-07 13:57 50.46551 4.46603 591 ft 9 kts 68°
2026-05-07 13:57 50.46573 4.46686 591 ft 8 kts 66°
2026-05-07 13:57 50.46597 4.46768 592 ft 8 kts 62°
2026-05-07 13:58 50.46646 4.46792 591 ft 8 kts 347°
2026-05-07 13:58 50.46713 4.46793 588 ft 11 kts 32°
2026-05-07 13:58 50.46751 4.46898 586 ft 11 kts 65°
2026-05-07 13:58 50.46778 4.46992 585 ft 6 kts 66°
2026-05-07 13:59 50.46799 4.47011 585 ft 3 kts 358°
2026-05-07 13:59 50.46813 4.47004 585 ft 0 kts 339°
2026-05-07 13:59 50.46820 4.46999 585 ft 2 kts 338°
2026-05-07 13:59 50.46828 4.46994 585 ft 1 kts 337°
2026-05-07 14:00 50.46832 4.46991 585 ft 0 kts 337°
2026-05-07 14:00 50.46836 4.46988 585 ft 1 kts 337°
2026-05-07 14:00 50.46838 4.46987 585 ft 1 kts 337°
2026-05-07 14:01 50.46840 4.46986 585 ft 0 kts 337°